Weather in Toksovo

Russia / Saint-Petersburg and Leningrad Oblast     60°09′36″N   30°31′54″E
temp.,
°C
wind,
m/s
gust,
m/s
humid.,
%
clouds,
%
prec.,
mm/h
press.,
hPa
HPBL,
m
9 may, sun
sun900:00+1wsw29945 0.0 1009199
03:000w29902 0.0 1010174
06:00+1w39880 0.0 1012212
09:00+6wnw36675 0.0 1013557
12:00+9w46425 0.0 10162146
15:00+10wsw66413 0.0 10171690
18:00+9wsw364622 0.0 10181193
21:00+5ssw2269100 0.0 101920
10 may, mon
mon1000:00+4s2778100 0.0 1019116
03:00+5s31171100 0.0 1020308
06:00+6s51269100 0.0 1019744
09:00+6s61491100 1.6 1019710
12:00+7s51388100 0.1 1019563
15:00+17sw51063100 0.1 10191228
18:00+16ssw496947 0.0 1020993
21:00+14s41475100 0.0 1020526
11 may, tue
tue1100:00+13ssw5168063 0.0 1021566
03:00+12ssw4158682 0.0 1022450
06:00+11ssw4128816 0.0 1024377
09:00+16ssw496771 0.0 1024490
12:00+19ssw5850100 0.0 10251012
15:00+21ssw57435 0.0 10251343
18:00+21s364811 0.0 10251282
21:00+15sse29745 0.0 1025195
12 may, wed
wed1200:00+12s278192 0.0 1026126
03:00+11s248528 0.0 102671
06:00+11s27838 0.0 1026149
09:00+16sse35565 0.0 1026406
12:00+20s35405 0.0 10251033
15:00+23s34402 0.0 10241424
18:00+22ese334514 0.0 10221045
21:00+15ene25690 0.0 102283
13 may, thu
thu1300:00+12ene27760 0.0 1021130
03:00+12e210871 0.0 1020194
06:00+12ese311875 0.0 1020470
09:00+16sse47605 0.0 1020849
12:00+19se46425 0.0 10191457
15:00+21ese4737100 0.0 10161779
18:00+13e41285100 0.8 1015532
21:00+13s2586100 4.7 1016122